{"data":{"norad_id":58247,"intl_designator":"2023-171T","name":"STARLINK-30850","alt_names":[],"object_type":"PAYLOAD","status":"ACTIVE","operator":null,"country":"US","launch_date":"2023-11-08","launch_site_code":"AFETR","launch_vehicle":null,"mission":null,"orbit_class":"UNKNOWN","rcs_meters":null,"size_class":null,"mass_kg":null,"dimensions":null,"purposes":["comms"],"wikipedia_slug":null,"has_3d_model":false,"image_url":null,"decayed_at":null,"tle_current":{"epoch":"2026-05-24T22:06:16.661088Z","epoch_age_seconds":81973,"freshness":"FRESH","line1":"1 58247U 23171T   26144.92102617  .00000328  00000+0  21472-4 0  9997","line2":"2 58247  43.0031 214.6681 0001812 267.8148  92.2496 15.27573982141394","mean_motion":15.27573982,"eccentricity":0.0001812,"inclination_deg":43.0031,"raan_deg":214.6681,"arg_perigee_deg":267.8148,"mean_anomaly_deg":92.2496,"bstar":2.1472e-5,"rev_number":14139,"period_min":94.267120085055,"perigee_km":481.82386596993,"apogee_km":484.31036634163,"semimajor_km":6861.2041161558,"source":"CELESTRAK","updated_at":"2026-05-25T13:38:18.582794Z"}}}